Figari, France

10:55 AM CEST on August 21, 2017 (GMT +0200)
Figari-Sud Corse

Weather History for LFKF - February, 2014

Change the Weather History Date:

Sunday, February 16, 2014

  Actual Average Record
Temperature  
Mean Temperature 58 °F -  
Max Temperature 74 °F 57 °F 74 °F (2014)
Min Temperature 41 °F 43 °F 23 °F (2009)
Degree Days  
Heating Degree Days 8    
Growing Degree Days 8 (Base 50)    
Moisture  
Dew Point 45 °F    
Average Humidity 68    
Maximum Humidity 94    
Minimum Humidity 24    
Precipitation  
Precipitation 0.00 in - - ()
Sea Level Pressure  
Sea Level Pressure 29.96 in    
Wind  
Wind Speed 4 mph ()    
Max Wind Speed 10 mph    
Max Gust Speed -    
Visibility 7.4 miles    
Events      
Averages and records for this station are not official NWS values.
T = Trace of Precipitation, MM = Missing Value Source: Averaged Metar Reports

Daily Weather History Graph

Daily Weather History Graph

Search for Another Location

Airport or City:

Trip Planner

Search our weather history database for the weather conditions in past years. The results will help you decide how hot, cold, wet, or windy it might be!

Date:

Astronomy

Feb. 16, 2014 Rise Set
Actual Time 7:17 AM CET 5:58 PM CET
Civil Twilight 6:49 AM CET 6:26 PM CET
Nautical Twilight 6:16 AM CET 6:59 PM CET
Astronomical Twilight 5:44 AM CET 7:31 PM CET
Moon 7:41 PM CET (2/16) 7:37 AM CET (2/16)
Length of Visible Light 11h 37m
Length of Day
10h 40m
Full, 98% of the Moon is Illuminated
Feb 16
Full
Feb 22
Last Quarter
Mar 1
New
Mar 8
First Quarter
Mar 16
Full

Hourly Weather History & Observations

Time (CET) Temp. Windchill Dew Point Humidity Pressure Visibility Wind Dir Wind Speed Gust Speed Precip Events Conditions
12:00 AM 60 °F - 45 °F 47% 29.98 in 12 mi West 10.4 mph - -   Clear
12:00 AM 60.8 °F - 44.6 °F 55% 29.98 in 6.2 mi West 10.4 mph - N/A   Unknown
12:30 AM 59.0 °F - 44.6 °F 59% 29.98 in 6.2 mi West 8.1 mph - N/A   Unknown
1:00 AM 57 °F - 45 °F 55% 29.99 in 11 mi WSW 4.6 mph - -   Clear
1:00 AM 57.2 °F - 44.6 °F 63% 29.98 in 6.2 mi WSW 4.6 mph - N/A   Unknown
1:30 AM 55.4 °F - 44.6 °F 67% 29.98 in 6.2 mi WSW 4.6 mph - N/A   Unknown
2:00 AM 51 °F - 44 °F 69% 29.98 in 12 mi SSW 4.6 mph - -   Clear
2:00 AM 51.8 °F - 44.6 °F 76% 29.98 in 6.2 mi SSW 4.6 mph - N/A   Unknown
2:30 AM 50.0 °F - 44.6 °F 82% 29.95 in 6.2 mi South 4.6 mph - N/A   Unknown
3:00 AM 49 °F - 44 °F 78% 29.97 in 12 mi South 5.8 mph - -   Clear
3:00 AM 50.0 °F - 44.6 °F 82% 29.95 in 6.2 mi South 5.8 mph - N/A   Unknown
3:30 AM 50.0 °F - 44.6 °F 82% 29.95 in 6.2 mi South 5.8 mph - N/A   Unknown
4:00 AM 48 °F - 42 °F 75% 29.96 in 11 mi SSW 1.2 mph - -   Clear
4:00 AM 48.2 °F - 42.8 °F 82% 29.95 in 6.2 mi Variable 1.2 mph - N/A   Unknown
4:30 AM 44.6 °F - 41.0 °F 87% 29.95 in 6.2 mi Calm Calm - N/A   Unknown
5:00 AM 45 °F - 42 °F 86% 29.96 in 11 mi NNW 1.2 mph - -   Clear
5:00 AM 44.6 °F - 42.8 °F 93% 29.95 in 6.2 mi Variable 1.2 mph - N/A   Unknown
5:30 AM 42.8 °F - 41.0 °F 93% 29.95 in 6.2 mi Variable 1.2 mph - N/A   Unknown
6:00 AM 43 °F - 41 °F 91% 29.96 in 10 mi NW 1.2 mph - -   Clear
6:00 AM 42.8 °F - 41.0 °F 93% 29.95 in 6.2 mi Variable 1.2 mph - N/A   Unknown
6:30 AM 42.8 °F - 39.2 °F 87% 29.95 in 6.2 mi Calm Calm - N/A   Unknown
7:00 AM 43 °F - 42 °F 92% 29.98 in 10 mi NE 4.6 mph - -   Clear
7:00 AM 42.8 °F 40.1 °F 41.0 °F 93% 29.98 in 6.2 mi NE 4.6 mph - N/A   Unknown
7:30 AM 42.8 °F - 41.0 °F 93% 29.98 in 6.2 mi Variable 1.2 mph - N/A   Unknown
8:00 AM 43 °F - 42 °F 93% 29.99 in 9 mi East 1.2 mph - -   Clear
8:00 AM 42.8 °F - 41.0 °F 93% 29.98 in 6.2 mi East 1.2 mph - N/A   Unknown
8:30 AM 51.8 °F - 50.0 °F 94% 29.98 in 6.2 mi NNE 3.5 mph - N/A   Unknown
9:00 AM 56 °F - 50 °F 74% 29.99 in 12 mi NE 3.5 mph - -   Clear
9:00 AM 55.4 °F - 50.0 °F 82% 29.98 in 6.2 mi Variable 3.5 mph - N/A   Unknown
9:30 AM 60.8 °F - 50.0 °F 68% 29.98 in 6.2 mi Calm Calm - N/A   Unknown
10:00 AM 64 °F - 51 °F 53% 29.99 in 11 mi SW 2.3 mph - -   Clear
10:00 AM 64.4 °F - 51.8 °F 64% 29.98 in 6.2 mi Variable 2.3 mph - N/A   Unknown
10:30 AM 64.4 °F - 48.2 °F 56% 29.98 in 6.2 mi Variable 2.3 mph - N/A   Unknown
11:00 AM 67 °F - 47 °F 37% 29.99 in 9 mi WSW 2.3 mph - -   Clear
11:00 AM 68.0 °F - 46.4 °F 46% 29.98 in 6.2 mi Variable 2.3 mph - N/A   Unknown
11:30 AM 66.2 °F - 46.4 °F 49% 29.98 in 6.2 mi Variable 3.5 mph - N/A   Unknown
12:00 PM 69 °F - 48 °F 37% 29.99 in 9 mi WSW 1.2 mph - -   Clear
12:00 PM 69.8 °F - 48.2 °F 46% 29.98 in 6.2 mi Variable 1.2 mph - N/A   Unknown
12:30 PM 71.6 °F - 44.6 °F 38% 29.98 in 6.2 mi Variable 2.3 mph - N/A   Unknown
1:00 PM 73 °F - 47 °F 28% 29.97 in 10 mi South 1.2 mph - -   Clear
1:00 PM 73.4 °F - 46.4 °F 38% 29.95 in 6.2 mi Variable 1.2 mph - N/A   Unknown
1:30 PM 73.4 °F - 46.4 °F 38% 29.95 in 6.2 mi Variable 2.3 mph - N/A   Unknown
2:00 PM 74 °F - 44 °F 24% 29.95 in 12 mi SSW 2.3 mph - -   Clear
2:00 PM 73.4 °F - 44.6 °F 36% 29.95 in 6.2 mi Variable 2.3 mph - N/A   Unknown
2:30 PM 73.4 °F - 46.4 °F 38% 29.92 in 6.2 mi WSW 4.6 mph - N/A   Unknown
3:00 PM 74 °F - 44 °F 24% 29.94 in 37 mi SSW 3.5 mph - -   Clear
3:00 PM 73.4 °F - 44.6 °F 36% 29.92 in 6.2 mi SSW 3.5 mph - N/A   Unknown
3:30 PM 73.4 °F - 46.4 °F 38% 29.92 in 6.2 mi WSW 5.8 mph - N/A   Unknown
4:00 PM 73 °F - 46 °F 26% 29.93 in 37 mi WSW 4.6 mph - -   Clear
4:00 PM 73.4 °F - 46.4 °F 38% 29.92 in 6.2 mi WSW 4.6 mph - N/A   Unknown
4:30 PM 71.6 °F - 48.2 °F 43% 29.92 in 6.2 mi West 6.9 mph - N/A   Unknown
5:00 PM 69 °F - 47 °F 35% 29.93 in 37 mi WSW 5.8 mph - -   Clear
5:00 PM 69.8 °F - 48.2 °F 46% 29.92 in 6.2 mi WSW 5.8 mph - N/A   Unknown
5:30 PM 66.2 °F - 50.0 °F 56% 29.92 in 6.2 mi WSW 4.6 mph - N/A   Unknown
6:00 PM 60 °F - 48 °F 54% 29.93 in 37 mi West 1.2 mph - -   Clear
6:00 PM 59.0 °F - 48.2 °F 67% 29.92 in 6.2 mi Calm Calm - N/A   Unknown
6:30 PM 55.4 °F - 46.4 °F 72% 29.92 in 6.2 mi Calm Calm - N/A   Unknown
7:00 PM 53 °F - 49 °F 83% 29.95 in 12 mi NE 3.5 mph - -   Clear
7:00 PM 53.6 °F - 50.0 °F 88% 29.92 in 6.2 mi NE 3.5 mph - N/A   Unknown
7:30 PM 50.0 °F - 46.4 °F 87% 29.95 in 6.2 mi Variable 2.3 mph - N/A   Unknown
8:00 PM 49 °F - 47 °F 92% 29.95 in 7 mi NE 3.5 mph - -   Clear
8:00 PM 50.0 °F - 48.2 °F 94% 29.95 in 6.2 mi Variable 3.5 mph - N/A   Unknown
8:30 PM 48.2 °F - 44.6 °F 87% 29.95 in 4.3 mi Calm Calm - N/A   Unknown
9:00 PM 46 °F - 44 °F 89% 29.96 in 9 mi SSE 3.5 mph - -   Clear
9:00 PM 46.4 °F 45.2 °F 44.6 °F 93% 29.95 in 6.2 mi SSE 3.5 mph - N/A   Unknown
9:30 PM 44.6 °F 43.1 °F 42.8 °F 93% 29.92 in 6.2 mi Variable 3.5 mph - N/A   Unknown
10:00 PM 44 °F - 42 °F 91% 29.95 in 9 mi SSW 2.3 mph - -   Clear
10:00 PM 44.6 °F - 42.8 °F 93% 29.92 in 6.2 mi Variable 2.3 mph - N/A   Unknown
10:30 PM 42.8 °F 41.1 °F 41.0 °F 93% 29.92 in 6.2 mi Variable 3.5 mph - N/A   Unknown
11:00 PM 43 °F - 42 °F 92% 29.94 in 37 mi WSW 3.5 mph - -   Clear
11:00 PM 42.8 °F 41.1 °F 41.0 °F 93% 29.92 in 6.2 mi Variable 3.5 mph - N/A   Unknown
11:30 PM 50.0 °F - 46.4 °F 87% 29.92 in 6.2 mi WSW 8.1 mph - N/A   Unknown